Castlegar, British Columbia

8:49 PM PDT on May 25, 2017 (GMT -0700)
Castlegar

Weather History for CYCG - April, 2013

Change the Weather History Date:

Friday, April 12, 2013

  Actual Average Record
Temperature  
Mean Temperature 36 °F -  
Max Temperature 42 °F 60 °F 73 °F (2004)
Min Temperature 30 °F 38 °F 23 °F (1997)
Degree Days  
Heating Degree Days 29    
Moisture  
Dew Point 32 °F    
Average Humidity 75    
Maximum Humidity 100    
Minimum Humidity 36    
Precipitation  
Precipitation 0.24 in 0.07 in - ()
Sea Level Pressure  
Sea Level Pressure 29.93 in    
Wind  
Wind Speed 5 mph ()    
Max Wind Speed 17 mph    
Max Gust Speed 23 mph    
Visibility 12.1 miles    
Events Rain    
Averages and records for this station are not official NWS values.
T = Trace of Precipitation, MM = Missing Value Source: Averaged Metar Reports

Daily Weather History Graph

Daily Weather History Graph

Search for Another Location

Airport or City:

Trip Planner

Search our weather history database for the weather conditions in past years. The results will help you decide how hot, cold, wet, or windy it might be!

Date:

Astronomy

Apr. 12, 2013 Rise Set
Actual Time 6:04 AM PDT 7:39 PM PDT
Civil Twilight 5:30 AM PDT 8:12 PM PDT
Nautical Twilight 4:50 AM PDT 8:53 PM PDT
Astronomical Twilight 4:05 AM PDT 9:38 PM PDT
Moon 7:05 AM PDT (4/12) 10:28 PM PDT (4/12)
Length of Visible Light 14h 41m
Length of Day
13h 34m
Waxing Crescent, 6% of the Moon is Illuminated
Apr 12
Waxing Crescent
Apr 18
First Quarter
Apr 25
Full
May 2
Last Quarter
May 9
New

Hourly Weather History & Observations

Time (PDT) Temp. Windchill Dew Point Humidity Pressure Visibility Wind Dir Wind Speed Gust Speed Precip Events Conditions
5:00 AM 37 °F - 20 °F 36% 30.22 in - NNE 8.1 mph - -  
6:00 AM 32.0 °F - 28.4 °F 87% 30.14 in 15.0 mi North 2.3 mph - N/A   Mostly Cloudy
7:00 AM 30.2 °F 26.7 °F 28.4 °F 93% 30.15 in 15.0 mi SE 3.5 mph - N/A   Mostly Cloudy
8:00 AM 33.8 °F - 30.2 °F 87% 30.13 in 15.0 mi NE 2.3 mph - N/A   Mostly Cloudy
9:00 AM 35.6 °F - 30.2 °F 81% 30.10 in 15.0 mi ENE 2.3 mph - N/A   Mostly Cloudy
10:00 AM 39.2 °F 37.0 °F 28.4 °F 65% 30.06 in 15.0 mi South 3.5 mph - N/A   Overcast
11:00 AM 42.8 °F 41.1 °F 28.4 °F 57% 30.01 in 15.0 mi SSW 3.5 mph - N/A   Overcast
12:00 PM 44.6 °F 43.1 °F 26.6 °F 49% 29.97 in 15.0 mi South 3.5 mph - N/A   Overcast
1:00 PM 48.2 °F - 28.4 °F 46% 29.92 in 15.0 mi East 4.6 mph - N/A   Overcast
2:00 PM 50.0 °F - 30.2 °F 47% 29.86 in 15.0 mi South 12.7 mph - N/A   Overcast
3:00 PM 48.2 °F - 30.2 °F 50% 29.83 in 15.0 mi SSE 17.3 mph 23.0 mph N/A Rain Light Rain Showers
4:00 PM 42.8 °F 36.6 °F 37.4 °F 81% 29.81 in 10.0 mi ESE 11.5 mph 17.3 mph N/A Rain Light Rain Showers
5:00 PM 33 °F - 30 °F 86% 30.09 in - East 11.5 mph - -  
5:00 PM 42.8 °F 40.1 °F 39.2 °F 87% 29.78 in 12.0 mi NNW 4.6 mph - N/A Rain Light Rain Showers
6:00 PM 41.0 °F - 39.2 °F 93% 29.75 in 12.0 mi Calm Calm - N/A Rain Light Rain Showers
7:00 PM 41.0 °F - 39.2 °F 93% 29.72 in 3.0 mi Calm Calm - N/A Rain Light Rain
8:00 PM 39.2 °F - 37.4 °F 93% 29.69 in 3.0 mi Calm Calm - N/A Rain Light Rain
9:00 PM 37.4 °F - 37.4 °F 100% 29.63 in 3.0 mi Calm Calm - N/A Rain Light Rain
11:00 PM 33 °F - 33 °F 97% 29.80 in - East 17.3 mph - -